User: anonymous   Login
Location: NJAA Observatory
(40.6819°N, 74.8979°W)
Time: 14:54:11
(UTC-05:00)
Language:

CENTAUR R/B - Orbit

View from above orbital plane
View from above orbital plane
View from above satellite
View from above satellite

Ground track
Ground track

The orbit data is extracted from the following two-line orbital elements,

1 26906U 01040B   14340.71045431 0.00000100  00000-0  13850-3 0    09
2 26906  63.4635 179.0155 0271000 344.7523  15.2477 13.43932322    06
Epoch (UTC): 06 December 2014 17:03:03
Eccentricity: 0.0271000
inclination: 63.4635°
perigee height: 892 km
apogee height: 1297 km
right ascension of ascending node: 179.0155°
argument of perigee: 344.7523°
revolutions per day: 13.43932322
mean anomaly at epoch: 15.2477°
orbit number at epoch: 0

The dashed part of the orbit path shows where the satellite is in the earth's shadow,  

DLR